Time,TemperatureF,DewpointF,PressureIn,WindDirection,WindDirectionDegrees,WindSpeedMPH,WindSpeedGustMPH,Humidity,HourlyPrecipIn,Conditions,Clouds,dailyrainin,SolarRadiationWatts/m^2,SoftwareType,DateUTC
2013-05-03 00:01:00,35.3,33.8,30.38,NE,35,2.0,3.0,94,0.01,,-RA,0.00,0.00,VWS V14.01,2013-05-03 05:01:00,
2013-05-03 00:06:00,35.4,33.8,30.38,NNE,24,2.0,2.0,94,0.00,,-RA,0.00,0.00,VWS V14.01,2013-05-03 05:06:00,
2013-05-03 00:11:00,35.4,33.8,30.38,NNE,24,2.0,4.0,94,0.00,,-RA,0.00,0.00,VWS V14.01,2013-05-03 05:11:00,
2013-05-03 00:16:00,35.5,34.0,30.38,NNW,327,2.0,5.0,94,0.00,,-RA,0.00,0.00,VWS V14.01,2013-05-03 05:16:00,
2013-05-03 00:21:00,35.5,33.7,30.38,NNW,335,0.0,0.0,93,0.00,,-RA,0.00,0.00,VWS V14.01,2013-05-03 05:21:00,
2013-05-03 00:26:00,35.7,33.9,30.38,NNE,22,2.0,4.0,93,0.00,,-RA,0.00,0.00,VWS V14.01,2013-05-03 05:26:00,
2013-05-03 00:31:00,35.7,33.9,30.39,NNE,22,2.0,3.0,93,0.00,,OVC022,0.00,0.00,VWS V14.01,2013-05-03 05:31:00,
2013-05-03 00:36:00,35.7,33.9,30.39,NNE,27,0.0,0.0,93,0.00,,OVC022,0.00,0.00,VWS V14.01,2013-05-03 05:36:00,
2013-05-03 00:41:00,35.7,33.9,30.39,NNE,31,4.0,5.0,93,0.00,,OVC022,0.00,0.00,VWS V14.01,2013-05-03 05:41:00,
2013-05-03 00:46:00,35.7,33.9,30.37,NNE,12,3.0,4.0,93,0.00,,OVC022,0.00,0.00,VWS V14.01,2013-05-03 05:46:00,
2013-05-03 00:51:00,35.8,34.0,30.37,NNE,32,9.0,9.0,93,0.00,,OVC022,0.00,0.00,VWS V14.01,2013-05-03 05:51:00,
2013-05-03 00:56:00,35.8,34.0,30.37,NNE,28,4.0,4.0,93,0.00,,OVC022,0.00,0.00,VWS V14.01,2013-05-03 05:56:00,
2013-05-03 01:01:00,35.8,33.7,30.36,North,360,2.0,3.0,92,0.00,,OVC022,0.00,0.00,VWS V14.01,2013-05-03 06:01:00,
2013-05-03 01:06:00,36.0,33.9,30.36,NNE,28,5.0,6.0,92,0.00,,OVC022,0.00,0.00,VWS V14.01,2013-05-03 06:06:00,
2013-05-03 01:11:00,36.1,34.0,30.36,NNE,13,4.0,4.0,92,0.00,,OVC022,0.00,0.00,VWS V14.01,2013-05-03 06:11:00,
2013-05-03 01:16:00,36.1,34.0,30.37,NNE,27,2.0,3.0,92,0.00,,OVC022,0.00,0.00,VWS V14.01,2013-05-03 06:16:00,
2013-05-03 01:21:00,36.3,34.2,30.37,NNE,20,3.0,3.0,92,0.00,,OVC022,0.00,0.00,VWS V14.01,2013-05-03 06:21:00,
2013-05-03 01:26:00,36.3,33.9,30.37,NNE,16,4.0,4.0,91,0.00,,OVC022,0.00,0.00,VWS V14.01,2013-05-03 06:26:00,
2013-05-03 01:31:00,36.3,33.9,30.36,North,5,4.0,7.0,91,0.00,,OVC042,0.00,0.00,VWS V14.01,2013-05-03 06:31:00,
2013-05-03 01:36:00,36.4,34.0,30.36,North,11,9.0,9.0,91,0.00,,OVC042,0.00,0.00,VWS V14.01,2013-05-03 06:36:00,
2013-05-03 01:41:00,36.4,34.0,30.36,NNE,24,0.0,0.0,91,0.00,,OVC042,0.00,0.00,VWS V14.01,2013-05-03 06:41:00,
2013-05-03 01:46:00,36.5,33.8,30.35,NNE,23,1.0,4.0,90,0.00,,OVC042,0.00,0.00,VWS V14.01,2013-05-03 06:46:00,
2013-05-03 01:51:00,36.5,33.8,30.35,NNE,28,2.0,2.0,90,0.00,,OVC042,0.00,0.00,VWS V14.01,2013-05-03 06:51:00,
2013-05-03 01:56:00,36.5,33.8,30.35,NNE,15,1.0,4.0,90,0.00,,OVC042,0.00,0.00,VWS V14.01,2013-05-03 06:56:00,
2013-05-03 02:01:00,36.5,33.8,30.34,NNE,24,0.0,0.0,90,0.00,,OVC042,0.00,0.00,VWS V14.01,2013-05-03 07:01:00,
2013-05-03 02:06:00,36.5,33.8,30.34,North,5,1.0,2.0,90,0.00,,OVC042,0.00,0.00,VWS V14.01,2013-05-03 07:06:00,
2013-05-03 02:11:00,36.7,34.0,30.34,NNE,33,2.0,3.0,90,0.00,,OVC042,0.00,0.00,VWS V14.01,2013-05-03 07:11:00,
2013-05-03 02:16:00,36.7,33.8,30.32,NNE,26,0.0,1.0,89,0.00,,OVC042,0.00,0.00,VWS V14.01,2013-05-03 07:16:00,
2013-05-03 02:21:00,36.7,33.8,30.32,NNE,28,4.0,5.0,89,0.00,,OVC042,0.00,0.00,VWS V14.01,2013-05-03 07:21:00,
2013-05-03 02:26:00,36.7,33.8,30.32,NNE,27,0.0,0.0,89,0.00,,OVC042,0.00,0.00,VWS V14.01,2013-05-03 07:26:00,
2013-05-03 02:31:00,36.7,33.8,30.32,NNE,27,1.0,2.0,89,0.00,,OVC070,0.00,0.00,VWS V14.01,2013-05-03 07:31:00,
2013-05-03 02:36:00,36.7,33.8,30.32,NNE,28,4.0,4.0,89,0.00,,OVC070,0.00,0.00,VWS V14.01,2013-05-03 07:36:00,
2013-05-03 02:41:00,36.8,33.9,30.32,NNE,28,0.0,0.0,89,0.00,,OVC070,0.00,0.00,VWS V14.01,2013-05-03 07:41:00,
2013-05-03 02:46:00,36.8,33.9,30.32,NNE,28,0.0,0.0,89,0.00,,OVC070,0.00,0.00,VWS V14.01,2013-05-03 07:46:00,
2013-05-03 02:51:00,36.8,33.9,30.32,NNE,28,0.0,0.0,89,0.00,,OVC070,0.00,0.00,VWS V14.01,2013-05-03 07:51:00,
2013-05-03 02:56:00,36.8,33.9,30.32,NNE,28,0.0,0.0,89,0.00,,OVC070,0.00,0.00,VWS V14.01,2013-05-03 07:56:00,
2013-05-03 03:01:00,36.8,33.9,30.30,NNE,28,0.0,0.0,89,0.00,,OVC070,0.00,0.00,VWS V14.01,2013-05-03 08:01:00,
2013-05-03 03:06:00,36.8,33.9,30.30,North,11,0.0,0.0,89,0.00,,OVC070,0.00,0.00,VWS V14.01,2013-05-03 08:06:00,
2013-05-03 03:11:00,36.8,33.9,30.30,North,360,0.0,0.0,89,0.00,,OVC070,0.00,0.00,VWS V14.01,2013-05-03 08:11:00,
2013-05-03 03:16:00,36.8,33.9,30.30,North,5,0.0,0.0,89,0.00,,OVC070,0.00,0.00,VWS V14.01,2013-05-03 08:16:00,
2013-05-03 03:21:00,36.8,33.9,30.30,North,360,0.0,0.0,89,0.00,,OVC070,0.00,0.00,VWS V14.01,2013-05-03 08:21:00,
2013-05-03 03:26:00,36.8,33.9,30.30,North,355,0.0,1.0,89,0.00,,OVC070,0.00,0.00,VWS V14.01,2013-05-03 08:26:00,
2013-05-03 03:31:00,36.8,33.9,30.30,NNW,339,0.0,0.0,89,0.01,,OVC080,0.01,0.00,VWS V14.01,2013-05-03 08:31:00,
2013-05-03 03:36:00,36.8,33.9,30.30,NNW,338,0.0,0.0,89,0.01,,OVC080,0.01,0.00,VWS V14.01,2013-05-03 08:36:00,
2013-05-03 03:41:00,36.7,33.8,30.30,NNW,336,0.0,0.0,89,0.01,,OVC080,0.01,0.00,VWS V14.01,2013-05-03 08:41:00,
2013-05-03 03:46:00,36.7,33.8,30.30,NW,320,0.0,0.0,89,0.01,,OVC080,0.01,0.00,VWS V14.01,2013-05-03 08:46:00,
2013-05-03 03:51:00,36.8,33.9,30.30,NW,316,0.0,0.0,89,0.01,,OVC080,0.01,0.00,VWS V14.01,2013-05-03 08:51:00,
2013-05-03 03:56:00,36.8,33.6,30.30,NW,313,0.0,0.0,88,0.01,,OVC080,0.01,0.00,VWS V14.01,2013-05-03 08:56:00,
2013-05-03 04:01:00,36.8,33.6,30.29,NW,313,0.0,0.0,88,0.01,,OVC080,0.01,0.00,VWS V14.01,2013-05-03 09:01:00,
2013-05-03 04:05:00,36.8,33.6,30.29,NW,311,0.0,0.0,88,0.01,,OVC080,0.01,0.00,VWS V14.01,2013-05-03 09:05:00,
2013-05-03 04:10:00,37.0,33.8,30.29,NW,311,0.0,0.0,88,0.01,,OVC080,0.01,0.00,VWS V14.01,2013-05-03 09:10:00,
2013-05-03 04:15:00,37.0,33.8,30.29,NW,311,0.0,0.0,88,0.01,,OVC080,0.01,0.00,VWS V14.01,2013-05-03 09:15:00,
2013-05-03 04:20:00,37.0,33.8,30.29,NW,309,0.0,0.0,88,0.01,,OVC080,0.01,0.00,VWS V14.01,2013-05-03 09:20:00,
2013-05-03 04:25:00,37.0,33.8,30.29,NW,309,0.0,0.0,88,0.01,,OVC080,0.01,0.00,VWS V14.01,2013-05-03 09:25:00,
2013-05-03 04:30:00,37.0,33.8,30.28,NW,305,0.0,0.0,88,0.00,,OVC080,0.01,0.00,VWS V14.01,2013-05-03 09:30:00,
2013-05-03 04:35:00,37.0,33.8,30.28,NW,305,0.0,0.0,88,0.00,,OVC080,0.01,0.00,VWS V14.01,2013-05-03 09:35:00,
2013-05-03 04:40:00,36.8,33.6,30.28,NW,305,0.0,0.0,88,0.00,,OVC080,0.01,0.00,VWS V14.01,2013-05-03 09:40:00,
2013-05-03 04:45:00,36.7,33.5,30.28,NW,305,0.0,0.0,88,0.00,,OVC080,0.01,0.00,VWS V14.01,2013-05-03 09:45:00,
2013-05-03 04:50:00,36.7,33.5,30.28,NW,305,0.0,0.0,88,0.00,,OVC080,0.01,0.00,VWS V14.01,2013-05-03 09:50:00,
2013-05-03 04:55:00,36.7,33.5,30.28,NW,306,0.0,0.0,88,0.00,,OVC080,0.01,0.00,VWS V14.01,2013-05-03 09:55:00,
2013-05-03 05:00:00,36.5,33.3,30.28,NW,309,0.0,0.0,88,0.00,,OVC080,0.01,0.00,VWS V14.01,2013-05-03 10:00:00,
2013-05-03 05:05:00,36.5,33.3,30.28,NW,309,0.0,0.0,88,0.00,,OVC080,0.01,0.00,VWS V14.01,2013-05-03 10:05:00,
2013-05-03 05:10:00,36.5,33.3,30.28,NW,311,0.0,0.0,88,0.00,,OVC080,0.01,0.00,VWS V14.01,2013-05-03 10:10:00,
2013-05-03 05:15:00,36.5,33.0,30.27,NW,310,0.0,0.0,87,0.00,,OVC080,0.01,0.00,VWS V14.01,2013-05-03 10:15:00,
2013-05-03 05:20:00,36.5,33.0,30.27,NW,310,0.0,0.0,87,0.00,,OVC080,0.01,0.00,VWS V14.01,2013-05-03 10:20:00,
2013-05-03 05:25:00,36.5,33.0,30.27,NW,311,0.0,0.0,87,0.00,,OVC080,0.01,0.00,VWS V14.01,2013-05-03 10:25:00,
2013-05-03 05:30:00,36.5,33.0,30.27,NW,311,0.0,0.0,87,0.00,,OVC100,0.01,0.00,VWS V14.01,2013-05-03 10:30:00,
2013-05-03 05:35:00,36.4,32.9,30.27,NW,313,0.0,0.0,87,0.00,,OVC100,0.01,0.00,VWS V14.01,2013-05-03 10:35:00,
2013-05-03 05:40:00,36.5,33.0,30.27,NW,311,0.0,0.0,87,0.00,,OVC100,0.01,0.00,VWS V14.01,2013-05-03 10:40:00,
2013-05-03 05:45:00,36.5,33.0,30.27,NW,311,0.0,0.0,87,0.00,,OVC100,0.01,0.00,VWS V14.01,2013-05-03 10:45:00,
2013-05-03 05:50:00,36.5,32.7,30.27,NW,311,0.0,0.0,86,0.00,,OVC100,0.01,0.00,VWS V14.01,2013-05-03 10:50:00,
2013-05-03 05:55:00,36.7,32.9,30.27,NW,311,1.0,2.0,86,0.00,,OVC100,0.01,0.00,VWS V14.01,2013-05-03 10:55:00,
2013-05-03 06:00:00,36.7,32.9,30.26,NW,311,1.0,3.0,86,0.00,,OVC100,0.01,0.00,VWS V14.01,2013-05-03 11:00:00,
2013-05-03 06:05:00,36.7,32.9,30.26,NW,315,0.0,0.0,86,0.00,,OVC100,0.01,0.00,VWS V14.01,2013-05-03 11:05:00,
2013-05-03 06:10:00,36.7,32.6,30.26,NW,315,0.0,0.0,85,0.00,,OVC100,0.01,0.00,VWS V14.01,2013-05-03 11:10:00,
2013-05-03 06:15:00,36.8,32.7,30.26,NW,315,0.0,0.0,85,0.00,,OVC100,0.01,0.00,VWS V14.01,2013-05-03 11:15:00,
2013-05-03 06:20:00,36.8,32.7,30.26,NW,315,0.0,0.0,85,0.00,,OVC100,0.01,0.00,VWS V14.01,2013-05-03 11:20:00,
2013-05-03 06:25:00,36.8,32.7,30.26,NW,306,0.0,0.0,85,0.00,,OVC100,0.01,0.00,VWS V14.01,2013-05-03 11:25:00,
2013-05-03 06:30:00,36.8,32.7,30.26,NW,308,0.0,1.0,85,0.00,,CLR,0.01,0.00,VWS V14.01,2013-05-03 11:30:00,
2013-05-03 06:35:00,36.8,32.7,30.26,NW,308,0.0,1.0,85,0.00,,CLR,0.01,8.05,VWS V14.01,2013-05-03 11:35:00,
2013-05-03 06:40:00,36.8,32.7,30.26,NW,313,3.0,3.0,85,0.00,,CLR,0.01,10.35,VWS V14.01,2013-05-03 11:40:00,
2013-05-03 06:45:00,36.8,32.7,30.26,NW,311,0.0,0.0,85,0.00,,CLR,0.01,16.10,VWS V14.01,2013-05-03 11:45:00,
2013-05-03 06:50:00,36.8,32.7,30.26,NW,312,0.0,0.0,85,0.00,,CLR,0.01,20.70,VWS V14.01,2013-05-03 11:50:00,
2013-05-03 06:55:00,36.8,32.7,30.26,NW,315,0.0,4.0,85,0.00,,CLR,0.01,24.15,VWS V14.01,2013-05-03 11:55:00,
2013-05-03 07:00:00,36.8,32.7,30.26,NW,315,0.0,0.0,85,0.00,,CLR,0.01,46.00,VWS V14.01,2013-05-03 12:00:00,
2013-05-03 07:05:00,37.0,32.9,30.26,NW,315,0.0,0.0,85,0.00,,CLR,0.01,54.05,VWS V14.01,2013-05-03 12:05:00,
2013-05-03 07:10:00,37.1,33.0,30.26,NW,315,0.0,0.0,85,0.00,,CLR,0.01,98.90,VWS V14.01,2013-05-03 12:10:00,
2013-05-03 07:15:00,37.3,33.2,30.26,NW,315,0.0,0.0,85,0.00,,CLR,0.01,95.45,VWS V14.01,2013-05-03 12:15:00,
2013-05-03 07:20:00,37.6,33.5,30.26,NW,317,0.0,0.0,85,0.00,,CLR,0.01,141.45,VWS V14.01,2013-05-03 12:20:00,
2013-05-03 07:25:00,38.0,33.6,30.26,NW,320,0.0,1.0,84,0.00,,CLR,0.01,163.30,VWS V14.01,2013-05-03 12:25:00,
2013-05-03 07:30:00,38.4,33.4,30.26,NNE,22,0.0,5.0,82,0.00,,CLR,0.01,181.70,VWS V14.01,2013-05-03 12:30:00,
2013-05-03 07:35:00,38.7,33.4,30.26,North,351,0.0,0.0,81,0.00,,CLR,0.01,197.80,VWS V14.01,2013-05-03 12:35:00,
2013-05-03 07:40:00,39.0,33.4,30.26,NNW,329,0.0,0.0,80,0.00,,CLR,0.01,218.50,VWS V14.01,2013-05-03 12:40:00,
2013-05-03 07:45:00,39.4,33.8,30.25,North,349,2.0,2.0,80,0.00,,CLR,0.01,236.90,VWS V14.01,2013-05-03 12:45:00,
2013-05-03 07:50:00,39.7,33.7,30.25,NW,312,0.0,0.0,79,0.00,,CLR,0.01,254.15,VWS V14.01,2013-05-03 12:50:00,
2013-05-03 07:55:00,40.1,33.8,30.25,North,349,0.0,0.0,78,0.00,,CLR,0.01,272.55,VWS V14.01,2013-05-03 12:55:00,
2013-05-03 08:00:00,40.4,33.8,30.25,North,360,0.0,6.0,77,0.00,,CLR,0.01,290.95,VWS V14.01,2013-05-03 13:00:00,
2013-05-03 08:05:00,41.0,34.3,30.25,NW,314,0.0,6.0,77,0.00,,CLR,0.01,309.35,VWS V14.01,2013-05-03 13:05:00,
2013-05-03 08:10:00,41.4,33.8,30.25,NNW,329,2.0,2.0,74,0.00,,CLR,0.01,327.75,VWS V14.01,2013-05-03 13:10:00,
2013-05-03 08:15:00,41.7,33.3,30.25,North,355,5.0,6.0,72,0.00,,CLR,0.01,349.60,VWS V14.01,2013-05-03 13:15:00,
2013-05-03 08:20:00,42.1,34.1,30.25,NNE,21,2.0,6.0,73,0.00,,CLR,0.01,365.70,VWS V14.01,2013-05-03 13:20:00,
2013-05-03 08:25:00,42.3,33.2,30.25,North,5,1.0,2.0,70,0.01,,CLR,0.02,386.40,VWS V14.01,2013-05-03 13:25:00,
2013-05-03 08:30:00,42.6,33.5,30.25,NNE,16,6.0,6.0,70,0.01,,CLR,0.02,404.80,VWS V14.01,2013-05-03 13:30:00,
2013-05-03 08:35:00,42.7,33.6,30.25,NE,51,0.0,9.0,70,0.01,,CLR,0.02,422.05,VWS V14.01,2013-05-03 13:35:00,
2013-05-03 08:40:00,43.3,34.5,30.25,NNE,30,0.0,2.0,71,0.01,,CLR,0.02,445.05,VWS V14.01,2013-05-03 13:40:00,
2013-05-03 08:45:00,43.3,33.5,30.24,NNW,327,0.0,12.0,68,0.01,,CLR,0.02,461.15,VWS V14.01,2013-05-03 13:45:00,
2013-05-03 08:50:00,43.4,33.6,30.24,NW,317,0.0,0.0,68,0.01,,CLR,0.02,483.00,VWS V14.01,2013-05-03 13:50:00,
2013-05-03 08:55:00,43.7,32.7,30.24,North,350,3.0,9.0,65,0.01,,CLR,0.02,501.40,VWS V14.01,2013-05-03 13:55:00,
2013-05-03 09:00:00,44.2,33.2,30.24,NNW,331,3.0,13.0,65,0.01,,CLR,0.02,519.80,VWS V14.01,2013-05-03 14:00:00,
2013-05-03 09:05:00,44.9,33.5,30.24,North,11,6.0,9.0,64,0.01,,CLR,0.02,541.65,VWS V14.01,2013-05-03 14:05:00,
2013-05-03 09:10:00,45.0,33.6,30.24,North,360,2.0,2.0,64,0.01,,CLR,0.02,557.75,VWS V14.01,2013-05-03 14:10:00,
2013-05-03 09:15:00,45.3,33.5,30.24,NNW,338,7.0,7.0,63,0.01,,CLR,0.02,576.15,VWS V14.01,2013-05-03 14:15:00,
2013-05-03 09:20:00,45.3,33.1,30.24,NW,319,0.0,10.0,62,0.01,,CLR,0.02,594.55,VWS V14.01,2013-05-03 14:20:00,
2013-05-03 09:25:00,45.5,32.8,30.24,NNW,342,3.0,7.0,61,0.01,,CLR,0.02,614.10,VWS V14.01,2013-05-03 14:25:00,
2013-05-03 09:30:00,45.6,32.9,30.23,North,5,11.0,11.0,61,0.00,,CLR,0.02,632.50,VWS V14.01,2013-05-03 14:30:00,
2013-05-03 09:35:00,45.6,31.7,30.23,North,5,6.0,12.0,58,0.00,,CLR,0.02,650.90,VWS V14.01,2013-05-03 14:35:00,
2013-05-03 09:40:00,46.1,32.6,30.23,NNW,327,5.0,9.0,59,0.00,,CLR,0.02,664.70,VWS V14.01,2013-05-03 14:40:00,
2013-05-03 09:45:00,46.2,31.8,30.23,North,360,2.0,2.0,57,0.00,,CLR,0.02,679.65,VWS V14.01,2013-05-03 14:45:00,
2013-05-03 09:50:00,47.0,33.0,30.23,North,355,6.0,10.0,58,0.00,,CLR,0.02,696.90,VWS V14.01,2013-05-03 14:50:00,
2013-05-03 09:55:00,47.0,32.1,30.23,North,360,2.0,12.0,56,0.00,,CLR,0.02,715.30,VWS V14.01,2013-05-03 14:55:00,
2013-05-03 10:00:00,47.4,32.1,30.23,North,5,2.0,12.0,55,0.00,,CLR,0.02,731.40,VWS V14.01,2013-05-03 15:00:00,
2013-05-03 10:05:00,47.4,31.6,30.23,NNE,22,10.0,10.0,54,0.00,,CLR,0.02,747.50,VWS V14.01,2013-05-03 15:05:00,
2013-05-03 10:10:00,47.4,30.2,30.23,North,360,5.0,16.0,51,0.00,,CLR,0.02,763.60,VWS V14.01,2013-05-03 15:10:00,
2013-05-03 10:15:00,47.7,30.0,30.23,NNE,22,4.0,11.0,50,0.00,,CLR,0.02,782.00,VWS V14.01,2013-05-03 15:15:00,
2013-05-03 10:20:00,48.4,29.6,30.23,North,5,6.0,13.0,48,0.00,,CLR,0.02,796.95,VWS V14.01,2013-05-03 15:20:00,
2013-05-03 10:25:00,48.7,29.9,30.23,NNW,327,5.0,12.0,48,0.00,,CLR,0.02,808.45,VWS V14.01,2013-05-03 15:25:00,
2013-05-03 10:30:00,48.4,28.6,30.22,NNW,343,3.0,12.0,46,0.00,,CLR,0.02,826.85,VWS V14.01,2013-05-03 15:30:00,
2013-05-03 10:35:00,48.9,28.5,30.22,NNE,22,9.0,14.0,45,0.00,,CLR,0.02,845.25,VWS V14.01,2013-05-03 15:35:00,
2013-05-03 10:40:00,49.3,28.9,30.22,NE,34,8.0,10.0,45,0.00,,CLR,0.02,856.75,VWS V14.01,2013-05-03 15:40:00,
2013-05-03 10:45:00,49.9,28.9,30.22,North,355,0.0,10.0,44,0.00,,CLR,0.02,864.80,VWS V14.01,2013-05-03 15:45:00,
2013-05-03 10:50:00,50.4,29.9,30.22,NNE,19,0.0,13.0,45,0.00,,CLR,0.02,883.20,VWS V14.01,2013-05-03 15:50:00,
2013-05-03 10:55:00,50.2,28.0,30.22,NNW,340,5.0,7.0,42,0.00,,CLR,0.02,895.85,VWS V14.01,2013-05-03 15:55:00,
2013-05-03 11:00:00,50.7,30.1,30.22,NNW,346,4.0,9.0,45,0.00,,CLR,0.02,897.00,VWS V14.01,2013-05-03 16:00:00,
2013-05-03 11:05:00,50.7,27.9,30.22,NNW,327,0.0,10.0,41,0.00,,CLR,0.02,920.00,VWS V14.01,2013-05-03 16:05:00,
2013-05-03 11:10:00,50.5,27.1,30.22,North,11,3.0,14.0,40,0.00,,CLR,0.02,930.35,VWS V14.01,2013-05-03 16:10:00,
2013-05-03 11:15:00,50.8,26.1,30.21,North,5,4.0,13.0,38,0.00,,CLR,0.02,938.40,VWS V14.01,2013-05-03 16:15:00,
2013-05-03 11:20:00,51.0,27.5,30.21,North,360,4.0,10.0,40,0.00,,CLR,0.02,947.60,VWS V14.01,2013-05-03 16:20:00,
2013-05-03 11:25:00,51.8,28.9,30.21,NNE,33,0.0,11.0,41,0.00,,CLR,0.02,957.95,VWS V14.01,2013-05-03 16:25:00,
2013-05-03 11:30:00,52.3,28.1,30.20,North,9,3.0,14.0,39,0.01,,CLR,0.03,966.00,VWS V14.01,2013-05-03 16:30:00,
2013-05-03 11:35:00,52.0,28.5,30.20,North,10,7.0,10.0,40,0.01,,CLR,0.03,974.05,VWS V14.01,2013-05-03 16:35:00,
2013-05-03 11:40:00,52.3,29.9,30.20,North,9,3.0,16.0,42,0.01,,CLR,0.03,984.40,VWS V14.01,2013-05-03 16:40:00,
2013-05-03 11:45:00,52.4,28.8,30.19,NNW,336,6.0,12.0,40,0.01,,CLR,0.03,994.75,VWS V14.01,2013-05-03 16:45:00,
2013-05-03 11:50:00,52.7,27.2,30.19,NNW,346,5.0,12.0,37,0.01,,CLR,0.03,1008.55,VWS V14.01,2013-05-03 16:50:00,
2013-05-03 11:55:00,53.3,28.4,30.19,North,5,3.0,11.0,38,0.01,,CLR,0.03,1014.30,VWS V14.01,2013-05-03 16:55:00,
2013-05-03 12:00:00,53.6,27.3,30.19,North,5,0.0,12.0,36,0.02,,CLR,0.04,1024.65,VWS V14.01,2013-05-03 17:00:00,
2013-05-03 12:05:00,53.8,27.5,30.19,NNW,328,10.0,14.0,36,0.02,,CLR,0.04,1018.90,VWS V14.01,2013-05-03 17:05:00,
2013-05-03 12:10:00,54.1,29.7,30.19,NNE,13,5.0,11.0,39,0.02,,CLR,0.04,1040.75,VWS V14.01,2013-05-03 17:10:00,
2013-05-03 12:15:00,54.2,27.9,30.18,NW,314,6.0,14.0,36,0.02,,CLR,0.04,1056.85,VWS V14.01,2013-05-03 17:15:00,
2013-05-03 12:20:00,53.9,27.6,30.18,NNW,329,5.0,14.0,36,0.02,,CLR,0.04,1075.25,VWS V14.01,2013-05-03 17:20:00,
2013-05-03 12:25:00,53.8,30.1,30.18,NNE,22,4.0,11.0,40,0.03,,CLR,0.05,938.40,VWS V14.01,2013-05-03 17:25:00,
2013-05-03 12:30:00,55.2,28.0,30.17,NW,322,9.0,15.0,35,0.03,,CLR,0.05,1053.40,VWS V14.01,2013-05-03 17:30:00,
2013-05-03 12:35:00,55.0,28.6,30.17,NNW,333,1.0,15.0,36,0.02,,CLR,0.05,1091.35,VWS V14.01,2013-05-03 17:35:00,
2013-05-03 12:40:00,54.5,28.1,30.17,NNW,333,5.0,12.0,36,0.02,,CLR,0.05,1071.80,VWS V14.01,2013-05-03 17:40:00,
2013-05-03 12:45:00,54.4,27.3,30.16,NNW,331,9.0,17.0,35,0.02,,CLR,0.05,1081.00,VWS V14.01,2013-05-03 17:45:00,
2013-05-03 12:50:00,55.5,27.6,30.16,NNW,331,8.0,11.0,34,0.02,,CLR,0.05,1077.55,VWS V14.01,2013-05-03 17:50:00,
2013-05-03 12:55:00,55.2,27.3,30.16,NNW,331,2.0,9.0,34,0.02,,CLR,0.05,1106.30,VWS V14.01,2013-05-03 17:55:00,
2013-05-03 13:00:00,55.5,26.1,30.15,North,11,4.0,24.0,32,0.03,,CLR,0.06,1128.15,VWS V14.01,2013-05-03 18:00:00,
2013-05-03 13:05:00,55.7,27.1,30.15,NNW,331,5.0,15.0,33,0.02,,CLR,0.06,1112.05,VWS V14.01,2013-05-03 18:05:00,
2013-05-03 13:10:00,55.1,25.8,30.15,North,9,5.0,11.0,32,0.02,,CLR,0.06,1091.35,VWS V14.01,2013-05-03 18:10:00,
2013-05-03 13:15:00,55.1,26.5,30.14,NNE,14,6.0,14.0,33,0.02,,CLR,0.06,1083.30,VWS V14.01,2013-05-03 18:15:00,
2013-05-03 13:20:00,55.5,25.4,30.14,NNE,22,1.0,20.0,31,0.03,,CLR,0.07,1087.90,VWS V14.01,2013-05-03 18:20:00,
2013-05-03 13:25:00,55.4,26.0,30.14,NNE,32,7.0,16.0,32,0.03,,CLR,0.07,1089.05,VWS V14.01,2013-05-03 18:25:00,
2013-05-03 13:30:00,55.5,26.9,30.14,NNW,342,2.0,11.0,33,0.02,,CLR,0.07,1079.85,VWS V14.01,2013-05-03 18:30:00,
2013-05-03 13:35:00,56.5,27.8,30.14,North,360,5.0,13.0,33,0.02,,CLR,0.07,1107.45,VWS V14.01,2013-05-03 18:35:00,
2013-05-03 13:40:00,56.8,26.5,30.14,North,360,9.0,12.0,31,0.02,,CLR,0.07,1146.55,VWS V14.01,2013-05-03 18:40:00,
2013-05-03 13:45:00,56.5,27.0,30.12,NNW,337,0.0,12.0,32,0.02,,CLR,0.07,1120.10,VWS V14.01,2013-05-03 18:45:00,
2013-05-03 13:50:00,56.9,27.4,30.12,WNW,302,0.0,10.0,32,0.02,,CLR,0.07,1117.80,VWS V14.01,2013-05-03 18:50:00,
2013-05-03 13:55:00,56.3,26.1,30.12,North,360,0.0,19.0,31,0.03,,CLR,0.08,1155.75,VWS V14.01,2013-05-03 18:55:00,
2013-05-03 14:00:00,56.5,27.0,30.12,NNW,338,0.0,10.0,32,0.03,,CLR,0.08,1138.50,VWS V14.01,2013-05-03 19:00:00,
2013-05-03 14:05:00,56.9,27.4,30.12,North,9,13.0,19.0,32,0.02,,CLR,0.08,1186.80,VWS V14.01,2013-05-03 19:05:00,
2013-05-03 14:10:00,56.8,26.5,30.12,NNW,335,8.0,18.0,31,0.02,,CLR,0.08,1115.50,VWS V14.01,2013-05-03 19:10:00,
2013-05-03 14:15:00,56.9,25.8,30.11,North,5,6.0,20.0,30,0.02,,CLR,0.08,1141.95,VWS V14.01,2013-05-03 19:15:00,
2013-05-03 14:20:00,57.5,27.9,30.11,North,355,6.0,13.0,32,0.02,,CLR,0.08,1184.50,VWS V14.01,2013-05-03 19:20:00,
2013-05-03 14:25:00,57.4,27.0,30.11,NNE,23,6.0,14.0,31,0.01,,CLR,0.08,1181.05,VWS V14.01,2013-05-03 19:25:00,
2013-05-03 14:30:00,57.2,26.9,30.11,NNW,344,6.0,17.0,31,0.01,,CLR,0.08,210.45,VWS V14.01,2013-05-03 19:30:00,
2013-05-03 14:35:00,56.8,26.5,30.11,North,355,10.0,15.0,31,0.02,,CLR,0.09,1091.35,VWS V14.01,2013-05-03 19:35:00,
2013-05-03 14:40:00,56.6,25.5,30.11,North,9,6.0,22.0,30,0.02,,CLR,0.09,205.85,VWS V14.01,2013-05-03 19:40:00,
2013-05-03 14:45:00,56.6,25.5,30.10,NW,323,0.0,16.0,30,0.02,,CLR,0.09,293.25,VWS V14.01,2013-05-03 19:45:00,
2013-05-03 14:50:00,56.9,25.8,30.10,North,360,13.0,16.0,30,0.02,,CLR,0.09,1085.60,VWS V14.01,2013-05-03 19:50:00,
2013-05-03 14:55:00,57.4,25.4,30.10,NW,315,4.0,16.0,29,0.02,,CLR,0.09,1040.75,VWS V14.01,2013-05-03 19:55:00,
2013-05-03 15:00:00,57.1,26.8,30.09,NW,325,0.0,12.0,31,0.01,,CLR,0.09,226.55,VWS V14.01,2013-05-03 20:00:00,
2013-05-03 15:05:00,56.6,26.3,30.09,NNE,18,0.0,17.0,31,0.01,,CLR,0.09,311.65,VWS V14.01,2013-05-03 20:05:00,
2013-05-03 15:10:00,58.0,26.0,30.09,NE,36,9.0,15.0,29,0.01,,CLR,0.09,1064.90,VWS V14.01,2013-05-03 20:10:00,
2013-05-03 15:15:00,57.4,27.0,30.08,North,5,7.0,17.0,31,0.01,,CLR,0.09,1091.35,VWS V14.01,2013-05-03 20:15:00,
2013-05-03 15:20:00,57.1,26.8,30.08,North,9,7.0,14.0,31,0.01,,CLR,0.09,1055.70,VWS V14.01,2013-05-03 20:20:00,
2013-05-03 15:25:00,57.5,27.1,30.08,NNW,336,5.0,14.0,31,0.01,,CLR,0.09,1037.30,VWS V14.01,2013-05-03 20:25:00,
2013-05-03 15:30:00,57.1,26.8,30.07,NNW,346,6.0,13.0,31,0.01,,CLR,0.09,210.45,VWS V14.01,2013-05-03 20:30:00,
2013-05-03 15:35:00,57.4,27.0,30.07,WNW,302,0.0,16.0,31,0.01,,CLR,0.09,994.75,VWS V14.01,2013-05-03 20:35:00,
2013-05-03 15:40:00,58.3,28.6,30.07,NNW,346,0.0,17.0,32,0.00,,CLR,0.09,1000.50,VWS V14.01,2013-05-03 20:40:00,
2013-05-03 15:45:00,58.0,26.8,30.07,North,355,0.0,13.0,30,0.00,,CLR,0.09,202.40,VWS V14.01,2013-05-03 20:45:00,
2013-05-03 15:50:00,56.9,26.6,30.07,NNE,23,3.0,15.0,31,0.00,,CLR,0.09,1030.40,VWS V14.01,2013-05-03 20:50:00,
2013-05-03 15:55:00,56.5,25.5,30.07,North,5,7.0,16.0,30,0.00,,CLR,0.09,224.25,VWS V14.01,2013-05-03 20:55:00,
2013-05-03 16:00:00,56.6,27.9,30.06,North,360,10.0,17.0,33,0.00,,CLR,0.09,189.75,VWS V14.01,2013-05-03 21:00:00,
2013-05-03 16:05:00,56.8,25.7,30.06,North,360,5.0,17.0,30,0.01,,CLR,0.10,163.30,VWS V14.01,2013-05-03 21:05:00,
2013-05-03 16:10:00,57.1,26.0,30.06,NW,319,4.0,16.0,30,0.01,,CLR,0.10,192.05,VWS V14.01,2013-05-03 21:10:00,
2013-05-03 16:15:00,58.0,26.8,30.06,North,355,5.0,14.0,30,0.01,,CLR,0.10,914.25,VWS V14.01,2013-05-03 21:15:00,
2013-05-03 16:20:00,58.6,26.5,30.06,NNW,345,4.0,22.0,29,0.01,,CLR,0.10,859.05,VWS V14.01,2013-05-03 21:20:00,
2013-05-03 16:25:00,58.9,27.5,30.06,North,355,1.0,16.0,30,0.01,,CLR,0.10,186.30,VWS V14.01,2013-05-03 21:25:00,
2013-05-03 16:30:00,57.5,26.3,30.05,NNW,342,7.0,15.0,30,0.01,,SCT085,0.10,151.80,VWS V14.01,2013-05-03 21:30:00,
2013-05-03 16:35:00,57.4,27.0,30.05,North,5,0.0,12.0,31,0.01,,SCT085,0.10,826.85,VWS V14.01,2013-05-03 21:35:00,
2013-05-03 16:40:00,58.0,26.8,30.05,NW,325,4.0,13.0,30,0.01,,SCT085,0.10,762.45,VWS V14.01,2013-05-03 21:40:00,
2013-05-03 16:45:00,58.0,27.6,30.04,NNW,346,0.0,11.0,31,0.01,,SCT085,0.10,746.35,VWS V14.01,2013-05-03 21:45:00,
2013-05-03 16:50:00,58.0,26.8,30.04,North,11,3.0,11.0,30,0.01,,SCT085,0.10,154.10,VWS V14.01,2013-05-03 21:50:00,
2013-05-03 16:55:00,57.5,26.3,30.04,NNE,15,3.0,15.0,30,0.01,,SCT085,0.10,119.60,VWS V14.01,2013-05-03 21:55:00,
2013-05-03 17:00:00,58.0,27.6,30.04,WNW,297,0.0,14.0,31,0.01,,SCT085,0.10,754.40,VWS V14.01,2013-05-03 22:00:00,
2013-05-03 17:05:00,58.6,28.9,30.04,NNW,329,8.0,17.0,32,0.01,,SCT085,0.10,125.35,VWS V14.01,2013-05-03 22:05:00,
2013-05-03 17:10:00,57.5,27.1,30.04,NNE,32,9.0,13.0,31,0.01,,SCT085,0.11,117.30,VWS V14.01,2013-05-03 22:10:00,
2013-05-03 17:15:00,56.8,26.5,30.04,NNE,23,4.0,14.0,31,0.01,,SCT085,0.11,149.50,VWS V14.01,2013-05-03 22:15:00,
2013-05-03 17:20:00,56.6,26.3,30.04,NNW,346,4.0,15.0,31,0.01,,SCT085,0.11,159.85,VWS V14.01,2013-05-03 22:20:00,
2013-05-03 17:25:00,56.6,27.1,30.04,NNW,340,7.0,18.0,32,0.01,,SCT085,0.11,143.75,VWS V14.01,2013-05-03 22:25:00,
2013-05-03 17:30:00,56.5,26.2,30.04,NNE,28,0.0,13.0,31,0.01,,BKN085,0.11,115.00,VWS V14.01,2013-05-03 22:30:00,
2013-05-03 17:35:00,56.9,26.6,30.04,NE,51,1.0,10.0,31,0.01,,BKN085,0.11,592.25,VWS V14.01,2013-05-03 22:35:00,
2013-05-03 17:40:00,57.2,27.6,30.04,NNW,338,0.0,13.0,32,0.01,,BKN085,0.11,539.35,VWS V14.01,2013-05-03 22:40:00,
2013-05-03 17:45:00,57.4,27.8,30.03,NNE,24,0.0,1.0,32,0.01,,BKN085,0.11,115.00,VWS V14.01,2013-05-03 22:45:00,
2013-05-03 17:50:00,56.8,27.3,30.03,NNE,24,0.0,12.0,32,0.01,,BKN085,0.11,95.45,VWS V14.01,2013-05-03 22:50:00,
2013-05-03 17:55:00,56.3,27.6,30.03,NNW,338,0.0,13.0,33,0.01,,BKN085,0.11,109.25,VWS V14.01,2013-05-03 22:55:00,
2013-05-03 18:00:00,56.6,27.1,30.03,NNE,28,1.0,9.0,32,0.01,,BKN085,0.11,115.00,VWS V14.01,2013-05-03 23:00:00,
2013-05-03 18:05:00,56.3,26.8,30.03,NW,319,3.0,14.0,32,0.01,,BKN090,0.11,179.40,VWS V14.01,2013-05-03 23:05:00,
2013-05-03 18:10:00,56.1,26.7,30.03,NNE,32,0.0,7.0,32,0.02,,BKN090,0.12,95.45,VWS V14.01,2013-05-03 23:10:00,
2013-05-03 18:15:00,56.0,25.8,30.02,NW,320,0.0,14.0,31,0.01,,BKN090,0.12,96.60,VWS V14.01,2013-05-03 23:15:00,
2013-05-03 18:20:00,56.0,26.6,30.02,North,350,9.0,9.0,32,0.01,,BKN090,0.12,111.55,VWS V14.01,2013-05-03 23:20:00,
2013-05-03 18:25:00,56.0,26.6,30.02,NNE,15,9.0,12.0,32,0.01,,BKN090,0.12,104.65,VWS V14.01,2013-05-03 23:25:00,
2013-05-03 18:30:00,56.0,26.6,30.02,North,350,0.0,10.0,32,0.01,,BKN090,0.12,104.65,VWS V14.01,2013-05-03 23:30:00,
2013-05-03 18:35:00,56.0,26.6,30.02,NW,325,6.0,6.0,32,0.01,,BKN090,0.12,85.10,VWS V14.01,2013-05-03 23:35:00,
2013-05-03 18:40:00,56.0,25.8,30.02,NNW,347,0.0,3.0,31,0.01,,BKN090,0.12,74.75,VWS V14.01,2013-05-03 23:40:00,
2013-05-03 18:45:00,55.8,25.6,30.02,North,5,0.0,1.0,31,0.01,,BKN090,0.12,72.45,VWS V14.01,2013-05-03 23:45:00,
2013-05-03 18:50:00,55.7,25.5,30.02,NW,319,0.0,9.0,31,0.01,,BKN090,0.12,62.10,VWS V14.01,2013-05-03 23:50:00,
2013-05-03 18:55:00,55.7,25.5,30.02,NNW,338,0.0,1.0,31,0.01,,BKN090,0.12,109.25,VWS V14.01,2013-05-03 23:55:00,
2013-05-03 19:00:00,56.0,26.6,30.02,North,360,0.0,10.0,32,0.01,,BKN090,0.12,103.50,VWS V14.01,2013-05-04 00:00:00,
2013-05-03 19:05:00,56.1,25.9,30.02,North,360,0.0,11.0,31,0.01,,SCT095,0.12,93.15,VWS V14.01,2013-05-04 00:05:00,
2013-05-03 19:10:00,56.5,27.0,30.02,NW,324,0.0,6.0,32,0.01,,SCT095,0.12,147.20,VWS V14.01,2013-05-04 00:10:00,
2013-05-03 19:15:00,56.5,25.5,30.02,NNW,345,1.0,9.0,30,0.00,,SCT095,0.12,141.45,VWS V14.01,2013-05-04 00:15:00,
2013-05-03 19:20:00,56.5,26.2,30.02,NNW,327,0.0,1.0,31,0.00,,SCT095,0.12,66.70,VWS V14.01,2013-05-04 00:20:00,
2013-05-03 19:25:00,56.1,25.9,30.02,NNW,339,0.0,1.0,31,0.00,,SCT095,0.12,90.85,VWS V14.01,2013-05-04 00:25:00,
2013-05-03 19:30:00,56.0,26.6,30.02,NNW,344,0.0,1.0,32,0.00,,SCT095,0.12,50.60,VWS V14.01,2013-05-04 00:30:00,
2013-05-03 19:35:00,55.8,26.4,30.02,North,355,1.0,1.0,32,0.00,,FEW095,0.12,42.55,VWS V14.01,2013-05-04 00:35:00,
2013-05-03 19:40:00,55.5,26.1,30.02,NNE,22,0.0,1.0,32,0.00,,FEW095,0.12,36.80,VWS V14.01,2013-05-04 00:40:00,
2013-05-03 19:45:00,55.5,26.1,30.02,NNW,333,0.0,1.0,32,0.01,,FEW095,0.13,36.80,VWS V14.01,2013-05-04 00:45:00,
2013-05-03 19:50:00,55.4,26.8,30.02,North,355,0.0,1.0,33,0.01,,FEW095,0.13,29.90,VWS V14.01,2013-05-04 00:50:00,
2013-05-03 19:55:00,55.4,26.0,30.02,NNW,344,0.0,1.0,32,0.01,,FEW095,0.13,26.45,VWS V14.01,2013-05-04 00:55:00,
2013-05-03 20:00:00,55.2,25.9,30.02,NW,323,0.0,11.0,32,0.01,,FEW095,0.13,24.15,VWS V14.01,2013-05-04 01:00:00,
2013-05-03 20:05:00,55.2,25.9,30.02,NNW,330,0.0,0.0,32,0.01,,FEW095,0.13,16.10,VWS V14.01,2013-05-04 01:05:00,
2013-05-03 20:10:00,55.1,25.8,30.02,North,355,0.0,0.0,32,0.01,,FEW095,0.13,10.35,VWS V14.01,2013-05-04 01:10:00,
2013-05-03 20:15:00,55.1,25.8,30.01,ENE,57,0.0,0.0,32,0.01,,FEW095,0.13,0.00,VWS V14.01,2013-05-04 01:15:00,
2013-05-03 20:20:00,55.0,25.7,30.01,North,360,0.0,0.0,32,0.01,,FEW095,0.13,0.00,VWS V14.01,2013-05-04 01:20:00,
2013-05-03 20:25:00,54.8,25.5,30.01,NNW,342,0.0,0.0,32,0.01,,FEW095,0.13,0.00,VWS V14.01,2013-05-04 01:25:00,
2013-05-03 20:30:00,54.7,25.4,30.02,NW,324,0.0,0.0,32,0.01,,FEW095,0.13,0.00,VWS V14.01,2013-05-04 01:30:00,
2013-05-03 20:35:00,54.7,26.2,30.02,NNE,23,0.0,0.0,33,0.01,,FEW095,0.13,0.00,VWS V14.01,2013-05-04 01:35:00,
2013-05-03 20:40:00,54.5,25.3,30.02,NNE,23,0.0,0.0,32,0.01,,FEW095,0.13,0.00,VWS V14.01,2013-05-04 01:40:00,
2013-05-03 20:45:00,54.2,26.5,30.02,NNE,23,0.0,0.0,34,0.00,,FEW095,0.13,0.00,VWS V14.01,2013-05-04 01:45:00,
2013-05-03 20:50:00,54.1,27.1,30.02,NNE,23,0.0,0.0,35,0.00,,FEW095,0.13,0.00,VWS V14.01,2013-05-04 01:50:00,
2013-05-03 20:55:00,53.8,27.5,30.02,NE,35,0.0,0.0,36,0.00,,FEW095,0.13,0.00,VWS V14.01,2013-05-04 01:55:00,
2013-05-03 21:00:00,53.5,27.2,30.02,NE,36,0.0,0.0,36,0.00,,FEW095,0.13,0.00,VWS V14.01,2013-05-04 02:00:00,
2013-05-03 21:05:00,53.0,27.4,30.02,NNE,32,0.0,0.0,37,0.00,,FEW095,0.13,0.00,VWS V14.01,2013-05-04 02:05:00,
2013-05-03 21:10:00,52.7,27.2,30.02,NNE,32,0.0,0.0,37,0.00,,FEW095,0.13,0.00,VWS V14.01,2013-05-04 02:10:00,
2013-05-03 21:15:00,52.6,27.7,30.02,NNE,32,0.0,0.0,38,0.00,,FEW095,0.13,0.00,VWS V14.01,2013-05-04 02:15:00,
2013-05-03 21:20:00,52.3,27.5,30.02,NNE,32,0.0,0.0,38,0.00,,FEW095,0.13,0.00,VWS V14.01,2013-05-04 02:20:00,
2013-05-03 21:25:00,52.1,27.9,30.02,NNE,32,0.0,0.0,39,0.00,,FEW095,0.13,0.00,VWS V14.01,2013-05-04 02:25:00,
2013-05-03 21:30:00,52.0,27.8,30.02,NNE,32,0.0,0.0,39,0.00,,FEW095,0.13,0.00,VWS V14.01,2013-05-04 02:30:00,
2013-05-03 21:35:00,52.0,28.5,30.02,NNE,32,0.0,0.0,40,0.00,,FEW095,0.13,0.00,VWS V14.01,2013-05-04 02:35:00,
2013-05-03 21:40:00,51.8,28.3,30.02,NNE,32,0.0,0.0,40,0.00,,FEW095,0.13,0.00,VWS V14.01,2013-05-04 02:40:00,
2013-05-03 21:45:00,51.8,28.9,30.02,NE,45,0.0,0.0,41,0.00,,FEW095,0.13,0.00,VWS V14.01,2013-05-04 02:45:00,
2013-05-03 21:50:00,51.6,30.4,30.02,NE,45,0.0,0.0,44,0.00,,FEW095,0.13,0.00,VWS V14.01,2013-05-04 02:50:00,
2013-05-03 21:55:00,51.4,30.8,30.02,NE,46,0.0,0.0,45,0.00,,FEW095,0.13,0.00,VWS V14.01,2013-05-04 02:55:00,
2013-05-03 22:00:00,51.1,31.1,30.02,NE,46,0.0,0.0,46,0.00,,FEW095,0.13,0.00,VWS V14.01,2013-05-04 03:00:00,
2013-05-03 22:05:00,50.8,31.3,30.02,NE,46,0.0,0.0,47,0.00,,FEW095,0.13,0.00,VWS V14.01,2013-05-04 03:05:00,
2013-05-03 22:10:00,50.5,31.0,30.02,NE,46,0.0,0.0,47,0.00,,FEW095,0.13,0.00,VWS V14.01,2013-05-04 03:10:00,
2013-05-03 22:15:00,50.2,31.3,30.02,NE,46,0.0,0.0,48,0.00,,FEW095,0.13,0.00,VWS V14.01,2013-05-04 03:15:00,
2013-05-03 22:20:00,49.9,31.0,30.02,NE,46,0.0,0.0,48,0.00,,FEW095,0.13,0.00,VWS V14.01,2013-05-04 03:20:00,
2013-05-03 22:25:00,49.6,31.2,30.02,NE,46,0.0,0.0,49,0.00,,FEW095,0.13,0.00,VWS V14.01,2013-05-04 03:25:00,
2013-05-03 22:30:00,49.3,31.0,30.02,NE,49,0.0,0.0,49,0.00,,FEW095,0.13,0.00,VWS V14.01,2013-05-04 03:30:00,
2013-05-03 22:35:00,49.0,31.2,30.02,NE,49,0.0,0.0,50,0.00,,FEW095,0.13,0.00,VWS V14.01,2013-05-04 03:35:00,
2013-05-03 22:40:00,48.6,31.3,30.02,NE,49,0.0,0.0,51,0.00,,FEW095,0.13,0.00,VWS V14.01,2013-05-04 03:40:00,
2013-05-03 22:45:00,48.3,31.0,30.02,NE,51,0.0,0.0,51,0.00,,FEW095,0.13,0.00,VWS V14.01,2013-05-04 03:45:00,
2013-05-03 22:50:00,48.1,30.8,30.02,NE,51,0.0,0.0,51,0.00,,FEW095,0.13,0.00,VWS V14.01,2013-05-04 03:50:00,
2013-05-03 22:55:00,48.0,31.2,30.02,NE,51,0.0,0.0,52,0.00,,FEW095,0.13,0.00,VWS V14.01,2013-05-04 03:55:00,
2013-05-03 23:00:00,47.9,31.1,30.02,NE,51,0.0,0.0,52,0.00,,FEW095,0.13,0.00,VWS V14.01,2013-05-04 04:00:00,
2013-05-03 23:01:00,47.9,31.1,30.02,NE,51,0.0,0.0,52,0.00,,FEW095,0.13,0.00,VWS V14.01,2013-05-04 04:01:00,
2013-05-03 23:06:00,47.7,31.0,30.02,NE,51,0.0,0.0,52,0.00,,FEW095,0.13,0.00,VWS V14.01,2013-05-04 04:06:00,
2013-05-03 23:11:00,47.6,31.3,30.02,NE,51,0.0,0.0,53,0.00,,FEW095,0.13,0.00,VWS V14.01,2013-05-04 04:11:00,
2013-05-03 23:16:00,47.4,31.1,30.02,NE,51,0.0,0.0,53,0.00,,FEW095,0.13,0.00,VWS V14.01,2013-05-04 04:16:00,
2013-05-03 23:21:00,47.3,31.0,30.02,NE,51,0.0,0.0,53,0.00,,FEW095,0.13,0.00,VWS V14.01,2013-05-04 04:21:00,
2013-05-03 23:26:00,47.3,31.5,30.02,NE,51,0.0,0.0,54,0.00,,FEW095,0.13,0.00,VWS V14.01,2013-05-04 04:26:00,
2013-05-03 23:31:00,47.1,31.8,30.01,NE,51,0.0,0.0,55,0.00,,CLR,0.13,0.00,VWS V14.01,2013-05-04 04:31:00,
2013-05-03 23:36:00,47.1,32.2,30.01,NE,51,0.0,0.0,56,0.00,,CLR,0.13,0.00,VWS V14.01,2013-05-04 04:36:00,
2013-05-03 23:41:00,47.0,32.6,30.01,NE,51,0.0,0.0,57,0.00,,CLR,0.13,0.00,VWS V14.01,2013-05-04 04:41:00,
2013-05-03 23:46:00,46.8,32.8,30.00,NE,51,0.0,0.0,58,0.00,,CLR,0.13,0.00,VWS V14.01,2013-05-04 04:46:00,
2013-05-03 23:51:00,46.7,33.2,30.00,NE,51,0.0,0.0,59,0.00,,CLR,0.13,0.00,VWS V14.01,2013-05-04 04:51:00,
2013-05-03 23:56:00,46.5,33.0,30.00,NE,51,0.0,0.0,59,0.00,,CLR,0.13,0.00,VWS V14.01,2013-05-04 04:56:00,